Location: Newark
(11.5710°N, 104.9241°E)
Time: 05:38:37
(UTC+00:00)

Hubble Space Telescope - Visible Passes

Search period start: 19 January 2020 00:00
Search period end: 29 January 2020 00:00
Orbit: 536 x 540 km, 28.5° (Epoch: 18 January)

Date Brightness Start Highest point End Pass type
(mag) Time Alt. Az. Time Alt. Az. Time Alt. Az.
19 Jan 1.2 11:18:57 10° WNW 11:23:03 66° SSW 11:27:09 10° SE visible
19 Jan 3.7 13:02:50 10° SW 13:04:06 11° SSW 13:05:22 10° SSW visible
21 Jan 3.6 22:57:31 10° S 22:59:48 14° SSE 23:02:06 10° ESE visible
22 Jan 3.4 22:46:08 10° SSW 22:49:11 20° SSE 22:52:14 10° E visible
23 Jan 2.8 22:35:01 10° SSW 22:38:33 27° SSE 22:42:05 10° E visible
24 Jan 2.1 22:24:05 10° SW 22:27:55 38° SSE 22:31:46 10° E visible
25 Jan 1.4 22:14:08 16° SW 22:17:17 54° SSE 22:21:19 10° ENE visible
26 Jan 0.8 22:05:09 37° SW 22:06:40 78° SSE 22:10:47 10° ENE visible
27 Jan 0.6 21:56:00 75° NW 21:56:04 75° NNW 22:00:10 10° ENE visible
28 Jan 1.7 21:46:41 38° NNE 21:46:41 38° NNE 21:49:30 10° NE visible
